Weather History for Cape Girardeau, MO

Change the Weather History Date:

Sunday, March 10, 2013

  Actual Average Record
Temperature  
Mean Temperature 56 °F 45 °F  
Max Temperature 64 °F 56 °F 76 °F (2009)
Min Temperature 48 °F 34 °F 11 °F (1994)
Degree Days  
Heating Degree Days 9 20  
Month to date heating degree days 243 213  
Since 1 July heating degree days 3482 3710  
Cooling Degree Days 0 0  
Month to date cooling degree days 0 0  
Year to date cooling degree days 0 0  
Growing Degree Days 6 (Base 50)    
Moisture  
Dew Point 47 °F    
Average Humidity 70    
Maximum Humidity 93    
Minimum Humidity 47    
Precipitation  
Precipitation 0.25 in 0.14 in 3.23 in (1973)
Month to date precipitation 0.36 1.27  
Year to date precipitation 6.98 8.15  
Sea Level Pressure  
Sea Level Pressure 29.78 in    
Wind  
Wind Speed 14 mph (South)    
Max Wind Speed 30 mph    
Max Gust Speed 41 mph    
Visibility 8 miles    
Events Rain    
T = Trace of Precipitation, MM = Missing Value Source: NWS Daily Summary

Daily Weather History Graph

Daily Weather History Graph

Search for Another Location

Airport:

Trip Planner

Search our weather history database for the weather conditions in past years. The results will help you decide how hot, cold, wet, or windy it might be!

Date:

Astronomy

Mar. 10, 2013 Rise Set
Actual Time 7:16 AM CDT 7:01 PM CDT
Civil Twilight 6:50 AM CDT 7:27 PM CDT
Nautical Twilight 6:20 AM CDT 7:57 PM CDT
Astronomical Twilight 5:49 AM CDT 8:27 PM CDT
Moon 6:15 AM CDT (3/10) 6:09 PM CDT (3/10)
Length of Visible Light 12h 36m
Length of Day
11h 44m
Waning Crescent, 2% of the Moon is Illuminated
Mar 10
Waning Crescent
Mar 11
New
Mar 19
First Quarter
Mar 27
Full
Apr 2
Last Quarter

Hourly Weather History & Observations

Time (CDT) Temp. Dew Point Humidity Pressure Visibility Wind Dir Wind Speed Gust Speed Precip Events Conditions
12:53 AM 55.0 °F 37.0 °F 51% 29.89 in 10.0 mi SSE 12.7 mph - N/A   Mostly Cloudy
1:53 AM 55.9 °F 37.9 °F 51% 29.87 in 10.0 mi SSE 12.7 mph - N/A   Scattered Clouds
3:53 AM 55.4 °F 39.2 °F 54% 29.85 in 10.0 mi SSE 13.8 mph - N/A   Clear
4:53 AM 57.9 °F 41.0 °F 53% 29.83 in 10.0 mi SSE 16.1 mph 25.3 mph N/A   Clear
5:53 AM 57.9 °F 43.0 °F 58% 29.84 in 10.0 mi SSE 13.8 mph - N/A   Mostly Cloudy
6:53 AM 57.2 °F 44.6 °F 63% 29.83 in 10.0 mi SSE 13.8 mph 21.9 mph N/A   Overcast
7:53 AM 57.9 °F 45.0 °F 62% 29.82 in 10.0 mi SSE 19.6 mph 27.6 mph N/A   Scattered Clouds
8:53 AM 59.0 °F 46.0 °F 62% 29.80 in 10.0 mi SSE 18.4 mph - N/A   Scattered Clouds
9:53 AM 60.1 °F 46.0 °F 60% 29.79 in 10.0 mi SSE 23.0 mph 28.8 mph N/A   Clear
10:53 AM 62.1 °F 48.0 °F 60% 29.80 in 10.0 mi South 24.2 mph 34.5 mph N/A   Overcast
11:53 AM 62.1 °F 48.0 °F 60% 29.75 in 10.0 mi SSE 24.2 mph 33.4 mph N/A   Mostly Cloudy
12:53 PM 63.0 °F 48.0 °F 58% 29.74 in 10.0 mi SSE 23.0 mph 33.4 mph N/A   Overcast
1:53 PM 61.0 °F 51.1 °F 70% 29.70 in 5.0 mi South 26.5 mph 34.5 mph 0.01 in Rain Light Rain
2:28 PM 57.2 °F 53.6 °F 88% 29.72 in 4.0 mi SW 15.0 mph - 0.03 in Rain Rain
2:35 PM 57.2 °F 53.6 °F 88% 29.72 in 4.0 mi SW 17.3 mph 24.2 mph 0.04 in Rain Light Rain
2:53 PM 52.0 °F 48.0 °F 86% 29.73 in 9.0 mi NW 18.4 mph 26.5 mph 0.05 in Rain Light Rain
3:02 PM 51.8 °F 48.2 °F 88% 29.74 in 10.0 mi NW 11.5 mph 24.2 mph 0.00 in   Overcast
3:15 PM 51.8 °F 48.2 °F 88% 29.75 in 8.0 mi NW 9.2 mph - 0.00 in Rain Light Rain
3:53 PM 51.1 °F 48.9 °F 92% 29.78 in 6.0 mi West 8.1 mph - 0.07 in Rain Light Rain
4:53 PM 51.1 °F 48.0 °F 89% 29.78 in 3.0 mi SE 4.6 mph - 0.04 in Rain Light Rain
5:53 PM 51.1 °F 48.9 °F 92% 29.75 in 10.0 mi SE 5.8 mph - 0.06 in   Overcast
6:53 PM 50.0 °F 48.9 °F 96% 29.76 in 9.0 mi South 8.1 mph - N/A   Overcast
7:07 PM 50.0 °F 48.2 °F 94% 29.76 in 4.0 mi SSE 10.4 mph - N/A   Overcast
7:17 PM 50.0 °F 48.2 °F 94% 29.76 in 10.0 mi SSE 9.2 mph - N/A   Overcast
7:33 PM 50.0 °F 48.2 °F 94% 29.76 in 10.0 mi SSE 9.2 mph - N/A   Overcast
7:53 PM 50.0 °F 48.0 °F 93% 29.77 in 10.0 mi SSE 8.1 mph - N/A   Mostly Cloudy
8:14 PM 50.0 °F 48.2 °F 94% 29.77 in 10.0 mi South 9.2 mph - N/A   Mostly Cloudy
8:53 PM 50.0 °F 48.0 °F 93% 29.76 in 10.0 mi SSE 6.9 mph - N/A   Scattered Clouds
9:44 PM 50.0 °F 48.2 °F 94% 29.77 in 10.0 mi South 8.1 mph - N/A   Partly Cloudy
9:53 PM 50.0 °F 48.0 °F 93% 29.77 in 10.0 mi South 6.9 mph - N/A   Partly Cloudy
10:16 PM 48.2 °F 48.2 °F 100% 29.77 in 8.0 mi South 5.8 mph - N/A   Mostly Cloudy
10:53 PM 51.1 °F 48.9 °F 92% 29.76 in 10.0 mi South 11.5 mph - N/A   Overcast
11:30 PM 48.2 °F 46.4 °F 93% 29.78 in 2.5 mi WSW 12.7 mph - 0.02 in Rain Light Rain
11:36 PM 48.2 °F 46.4 °F 93% 29.78 in 3.0 mi WSW 12.7 mph - 0.02 in Rain Light Rain
11:53 PM 48.9 °F 46.0 °F 90% 29.78 in 10.0 mi WSW 8.1 mph - 0.02 in   Overcast
12:36 AM 48.2 °F 44.6 °F 87% 29.77 in 10.0 mi SW 5.8 mph - N/A   Overcast
12:53 AM 48.9 °F 44.1 °F 83% 29.77 in 10.0 mi SW 9.2 mph - N/A   Overcast